Theta_e
340 340 339 337 336 336 336 335 337 336 336 338 338 338 339 340 340 340 340 339 339 339 338 337 337 338 337 337 337 337 338 339 338 337 337 340 339 336 336 335 336 335 335 336 336 337 336 336 336 336 336 336 335 336 335 335 335 334 335 335 334 334 334 333 333 333 333 333 332 332 333 332 332 331 330 330 329 328 329 327 325 326 327 327 327
340 341 340 341 340 341 340 340 340 340 340 341 341 341 342 342 342 341 340 338 338 336 335 336 336 337 337 337 338 336 337 338 339 337 337 339 338 336 335 334 334 334 334 334 334 335 335 335 335 335 335 335 335 334 334 334 333 333 333 333 333 333 333 332 331 332 332 332 332 332 333 332 332 332 332 331 330 328 328 328 327 325 325 326 326
341 341 342 342 342 343 343 342 342 341 341 341 341 343 342 342 342 341 339 338 337 336 335 336 335 335 336 337 337 336 337 338 339 338 337 338 337 335 333 332 332 331 331 331 332 332 333 333 333 333 333 333 333 333 332 332 332 331 331 331 331 331 331 331 331 331 331 331 331 332 332 333 333 333 333 332 331 329 329 329 329 327 324 324 325
343 343 342 342 342 344 343 343 343 341 341 342 342 342 342 341 340 340 340 338 337 337 336 335 335 335 335 336 337 337 337 338 338 338 337 337 336 335 333 331 331 330 329 328 328 328 328 329 329 329 329 329 329 330 330 330 330 329 329 328 328 329 329 329 329 329 330 330 330 330 331 332 332 331 332 333 333 331 330 330 329 328 326 324 324
343 343 342 342 343 343 343 342 341 340 341 342 342 342 341 341 341 340 339 338 337 336 335 334 334 335 336 336 337 338 337 337 336 335 335 334 334 335 333 331 330 330 328 327 326 324 323 323 323 323 323 323 323 325 326 328 328 327 327 327 326 326 326 326 326 327 328 328 329 329 328 329 329 329 330 331 332 332 332 330 329 329 328 326 324
343 344 343 342 342 342 342 340 339 340 341 341 341 341 341 341 340 340 339 337 335 334 334 333 333 335 337 337 338 337 336 334 334 333 333 332 332 331 332 331 330 329 328 326 324 321 319 319 318 317 317 317 317 318 320 323 325 324 324 324 323 323 324 324 323 325 326 326 326 326 326 326 326 327 328 328 330 331 332 331 330 329 329 328 326
342 344 344 341 340 341 340 339 340 340 339 340 341 340 340 340 339 339 337 335 333 333 333 334 335 336 337 338 337 335 333 332 331 331 330 329 329 329 330 330 329 328 326 324 322 319 315 313 312 312 312 311 312 313 313 316 319 321 320 320 320 320 322 322 321 322 323 323 324 324 324 324 323 324 326 327 328 329 330 330 330 330 329 329 328
342 343 344 340 338 338 339 340 340 338 337 340 341 340 341 340 339 338 337 334 332 333 333 333 335 336 337 335 334 333 332 331 329 329 328 328 327 327 327 327 327 326 323 320 318 316 312 309 309 309 308 305 304 307 308 309 312 316 317 316 316 316 318 319 319 319 320 320 322 322 322 323 322 322 323 324 326 327 328 328 328 330 331 330 329
342 341 342 340 338 338 339 340 339 338 338 340 340 340 340 341 340 338 338 336 333 333 333 334 335 336 335 333 333 332 331 330 328 328 327 325 324 323 323 323 324 323 320 316 313 312 310 309 309 309 308 304 300 300 302 302 306 312 314 312 312 311 312 315 316 317 317 317 318 318 319 321 320 320 321 321 323 325 326 326 327 328 330 331 330
341 340 340 339 338 338 337 338 339 339 339 340 340 340 339 339 338 338 337 336 334 334 334 334 335 335 334 333 332 330 330 329 327 326 323 320 319 319 320 320 320 318 315 313 311 310 309 309 309 309 309 307 303 302 303 303 303 309 312 309 310 310 308 311 313 314 314 313 313 313 313 316 317 317 318 319 319 322 324 325 325 326 327 329 330
339 338 338 338 338 339 338 338 339 338 338 339 339 338 338 337 336 336 335 334 334 334 333 333 334 334 333 332 331 330 329 328 326 324 320 316 315 315 316 317 317 315 312 311 310 310 309 309 309 309 309 308 307 306 307 308 305 308 311 308 308 310 309 311 312 312 312 312 310 309 309 310 311 312 314 315 316 318 321 323 324 324 324 326 328
338 337 337 338 338 337 338 338 337 337 337 338 337 337 337 336 335 334 334 333 333 333 333 333 334 334 332 331 330 329 328 325 322 320 317 313 312 314 314 315 315 314 312 311 309 309 309 309 309 309 309 309 309 308 308 310 306 307 311 308 305 308 310 310 311 311 312 312 311 310 309 308 308 309 310 311 312 314 317 320 321 322 323 323 324
337 337 337 338 337 337 338 337 337 337 336 336 336 335 335 334 334 333 332 332 332 331 332 333 334 334 333 331 329 328 326 322 319 317 315 313 312 313 313 313 312 311 312 311 309 309 308 309 309 308 309 309 309 309 309 310 307 307 310 309 303 304 308 309 309 311 311 311 311 311 309 307 308 308 308 310 310 311 313 316 317 318 319 320 321
337 338 338 338 338 337 337 337 336 336 335 335 334 334 334 333 334 334 331 330 329 329 330 332 334 334 334 332 329 328 325 320 316 314 313 313 312 313 313 312 311 310 310 311 310 309 308 309 309 308 309 309 309 309 309 309 307 308 310 309 302 300 305 307 307 309 310 310 310 310 309 308 309 309 309 310 309 310 311 312 313 313 314 316 318
338 338 338 338 338 338 336 336 335 335 334 334 333 332 332 332 332 332 332 329 327 326 327 329 331 333 334 333 331 329 325 320 316 313 312 312 312 313 313 312 311 309 309 309 310 309 308 308 308 308 308 308 308 308 309 308 307 308 309 308 302 298 303 305 306 308 309 309 309 309 309 309 310 310 310 309 308 310 311 310 311 311 310 311 313
336 337 338 337 336 336 335 334 333 333 332 332 331 330 330 330 331 330 331 330 327 324 323 324 325 329 332 333 332 331 329 323 317 313 312 312 311 312 313 312 310 309 308 308 309 309 308 307 308 308 307 307 308 307 308 308 307 307 307 306 300 297 299 301 304 307 308 308 308 308 309 309 310 309 309 309 309 311 311 310 311 310 309 309 310
335 335 336 335 334 334 333 333 332 331 330 330 329 328 327 328 329 329 330 330 327 323 320 319 318 320 324 329 330 330 330 324 318 314 311 311 311 311 311 311 309 308 308 307 307 308 308 307 307 308 308 307 307 307 307 307 307 307 307 305 300 297 297 297 301 306 307 307 307 307 308 308 308 308 308 309 310 310 310 309 310 310 309 309 310
334 333 333 334 333 332 332 331 330 329 328 328 326 326 326 326 327 328 328 329 327 323 320 317 315 313 315 318 321 324 326 325 322 316 311 310 310 309 309 309 309 308 307 307 307 307 307 307 307 307 307 306 306 306 306 306 307 306 306 304 299 297 298 297 300 304 305 305 306 307 307 307 307 307 308 309 309 309 308 309 308 309 309 309 310
331 331 331 332 332 331 330 329 328 327 326 325 325 324 323 323 324 324 324 325 326 324 322 318 313 312 312 313 314 317 320 322 322 318 316 315 312 309 308 308 308 308 308 306 307 307 307 307 306 306 307 306 306 306 305 306 306 307 306 302 299 298 299 299 300 302 302 303 304 306 306 307 306 307 308 308 308 307 307 308 308 308 308 309 309
329 329 328 329 329 328 327 327 326 325 324 324 323 322 321 320 320 320 320 320 320 321 320 316 312 312 313 314 312 313 315 316 317 317 318 318 314 312 311 310 309 308 308 308 307 307 307 307 306 306 306 305 305 305 305 305 306 306 305 302 299 300 300 301 301 301 301 302 303 304 305 306 305 306 307 307 307 307 307 307 307 307 307 308 308
327 327 326 326 326 324 324 324 323 323 322 321 320 319 319 318 317 316 316 316 316 317 318 317 315 314 314 315 313 312 312 313 314 314 314 315 313 312 313 314 312 309 308 309 308 307 306 306 306 305 305 304 304 304 304 305 305 305 304 302 301 301 302 303 302 302 301 301 302 303 304 305 305 305 306 306 305 306 306 306 306 306 307 307 307
326 325 325 324 323 322 322 323 321 320 319 318 317 316 315 314 314 314 314 314 314 314 315 315 315 314 315 315 314 313 313 313 313 314 314 313 312 310 311 313 313 311 309 308 308 306 305 305 305 305 304 304 304 304 304 304 305 305 304 302 301 301 302 303 302 302 302 301 301 302 303 304 304 304 304 305 305 304 304 305 305 306 306 306 306
325 324 323 322 321 321 321 321 319 318 317 316 316 315 313 312 312 312 313 313 313 313 312 313 312 312 312 313 313 313 313 313 313 313 313 314 313 311 310 310 311 310 309 308 307 305 304 304 304 304 303 302 303 303 304 304 305 304 303 302 301 301 302 303 303 302 302 301 300 301 302 303 303 303 303 303 303 303 303 304 305 305 304 304 305
323 323 322 321 321 321 320 319 319 317 316 315 314 314 312 312 312 312 313 313 313 312 312 312 311 311 311 311 311 311 311 312 312 312 312 313 313 312 310 310 310 309 309 308 306 304 303 303 303 303 302 302 303 303 304 304 304 304 303 302 301 302 303 303 302 302 301 301 301 301 302 302 302 302 302 302 302 302 302 303 303 303 303 303 303
323 323 322 321 321 321 320 319 318 316 315 314 313 311 311 311 311 311 311 312 312 312 312 312 311 311 310 310 310 310 310 311 311 311 310 311 312 313 311 310 310 309 308 307 305 304 303 303 303 302 302 303 303 303 304 304 304 304 302 301 302 303 303 302 302 301 301 301 301 301 301 301 301 301 301 301 301 301 301 302 302 302 302 303 302
323 323 322 322 321 320 319 318 316 315 313 312 311 310 310 310 310 310 310 311 311 312 312 311 311 310 310 309 309 309 309 309 309 309 309 309 309 310 311 311 310 308 308 307 305 304 302 302 303 302 302 302 302 303 304 303 304 303 301 302 303 303 303 303 302 302 301 301 301 301 301 300 300 300 299 299 300 301 301 301 301 302 302 302 302
324 324 322 321 320 319 317 316 314 313 311 310 309 310 310 309 309 310 309 310 310 310 310 310 310 310 309 309 308 308 308 308 308 308 308 308 307 307 308 310 309 308 308 308 305 303 302 302 303 302 302 302 302 303 303 303 304 303 301 302 303 303 304 303 302 302 302 301 301 301 300 300 300 299 299 299 300 301 300 300 301 301 301 301 301
323 323 322 320 318 317 316 314 312 311 310 309 309 309 309 309 309 308 308 308 309 309 309 309 309 309 309 308 308 308 308 308 308 308 307 307 307 306 306 307 308 308 308 308 306 303 302 303 303 302 302 302 302 303 303 304 303 302 302 303 303 304 303 302 302 302 302 302 302 301 300 300 299 299 299 300 300 300 300 300 300 301 301 301 301
322 321 320 318 317 315 313 312 311 310 310 309 309 309 309 309 309 309 308 308 309 309 309 309 309 309 308 308 307 307 307 307 307 307 307 306 306 306 305 305 306 307 306 307 306 304 303 303 302 303 303 302 302 303 304 304 303 302 302 302 303 304 303 302 303 303 302 302 302 301 300 300 300 299 299 300 300 299 300 300 300 300 300 300 300
320 319 318 316 315 314 312 312 311 310 309 309 309 309 309 309 309 308 308 308 308 308 308 308 308 308 307 307 307 307 307 306 306 306 306 306 305 305 305 304 304 306 306 306 306 304 303 303 303 303 303 303 303 303 303 303 302 302 302 302 303 303 303 303 303 303 302 302 302 301 301 300 300 299 299 299 299 299 299 299 299 299 299 299 299
319 318 317 316 315 314 313 312 311 310 309 308 309 309 308 308 308 308 308 308 308 308 308 308 308 308 308 307 307 306 306 306 305 305 305 305 304 305 304 303 303 304 304 305 305 304 303 303 304 304 303 303 303 304 303 303 302 302 302 302 303 303 303 303 303 303 303 303 302 301 301 300 300 299 299 298 299 299 299 299 299 298 298 298 297
319 318 317 316 315 313 312 311 310 309 308 308 308 308 308 308 308 308 308 308 308 307 307 307 307 307 307 307 306 306 306 305 305 305 305 304 304 303 303 303 303 303 303 304 305 305 304 304 304 304 304 303 303 303 303 302 302 302 302 302 302 302 303 303 303 303 303 302 302 301 301 300 300 299 299 299 298 298 299 298 298 297 297 297 297
318 317 317 315 314 312 311 309 309 308 308 308 308 308 308 308 307 307 307 307 306 307 306 306 306 306 306 305 305 305 306 305 305 304 304 303 303 303 303 302 302 302 303 304 305 305 304 304 304 305 304 303 304 303 302 302 302 301 302 302 302 302 303 303 303 303 303 302 302 301 301 300 300 300 299 299 299 298 298 298 297 297 297 297 297
318 317 315 314 312 311 310 309 308 307 307 307 307 308 308 307 307 307 306 306 306 306 306 306 306 306 306 305 305 305 305 305 304 304 303 303 302 302 302 302 302 302 303 303 304 305 305 305 305 304 304 303 303 303 302 302 302 301 302 301 302 302 303 303 302 302 302 302 302 301 301 300 300 300 300 299 299 298 298 298 297 297 297 297 297
317 316 315 313 312 311 309 308 307 307 307 307 307 308 307 307 307 307 306 306 306 306 306 306 306 306 306 305 305 305 305 305 304 303 304 303 302 302 303 302 302 302 303 304 304 304 304 305 304 304 303 303 303 302 302 301 301 301 301 301 301 302 302 302 302 302 302 302 302 301 301 300 300 300 300 300 299 299 298 298 298 297 297 297 297
316 315 314 312 311 310 308 307 306 306 307 307 307 306 306 306 306 306 306 306 306 306 306 306 306 306 306 306 305 305 305 305 304 303 303 303 302 302 303 303 301 302 303 304 304 304 304 305 305 304 303 303 303 302 302 302 301 301 301 301 301 302 302 302 302 302 302 302 302 301 301 300 300 300 300 300 300 299 299 298 298 298 297 297 297
316 315 313 312 311 309 308 307 306 306 306 306 306 306 306 306 306 306 306 306 306 306 306 305 305 306 306 305 305 305 305 304 304 303 304 304 303 302 302 302 301 302 303 303 303 303 304 304 304 304 303 303 302 302 302 301 301 301 301 301 301 302 302 302 302 302 302 302 301 301 300 300 300 300 300 300 300 299 298 298 298 298 298 298 298
315 314 312 311 310 308 307 306 306 306 305 305 305 305 306 306 306 306 306 306 306 306 305 305 305 305 305 305 304 304 304 303 303 302 303 303 303 302 301 301 301 302 303 303 303 303 303 304 304 303 303 302 302 301 301 301 300 300 300 300 301 302 302 302 302 302 302 302 301 300 300 300 300 300 300 300 300 299 299 298 298 298 298 298 297
314 313 312 310 309 307 306 306 306 305 305 305 305 305 306 306 306 306 306 306 305 305 305 305 305 305 305 304 303 303 302 302 301 300 300 302 302 301 299 300 300 302 302 302 302 302 302 303 303 303 302 302 301 301 301 300 300 300 300 301 301 302 302 302 302 302 302 301 300 300 300 300 300 300 300 300 300 299 299 299 298 298 298 297 296
313 312 311 310 309 307 307 306 305 305 305 305 305 305 305 305 306 306 306 306 306 305 305 305 305 305 303 303 302 300 298 298 297 296 295 297 299 299 298 299 300 301 301 301 301 301 302 303 303 302 302 301 301 301 301 300 299 300 300 300 301 301 302 302 302 302 301 301 301 300 300 300 301 300 300 300 299 299 299 299 298 298 297 296 296
312 312 311 309 308 307 307 306 305 305 305 305 304 305 305 306 305 305 305 306 305 304 304 305 304 303 303 302 299 296 293 293 292 292 291 292 294 296 296 297 298 299 300 300 300 300 301 302 302 302 301 301 300 300 300 299 299 300 300 300 301 301 302 302 302 301 301 301 301 301 300 300 300 300 300 300 299 299 299 299 298 297 296 296 296
312 311 311 309 309 308 307 306 305 305 305 305 304 304 305 305 305 305 305 305 305 304 304 305 304 303 301 299 296 294 294 295 294 293 291 290 291 292 293 293 294 296 298 298 299 299 300 301 302 302 301 300 300 300 299 299 299 299 300 300 301 301 302 301 302 301 301 301 301 301 301 300 300 300 300 300 299 299 299 298 298 297 296 295 295
312 311 310 309 309 308 307 306 306 306 306 305 303 303 304 304 305 305 305 305 305 305 304 304 304 303 302 299 298 297 299 301 300 298 295 293 293 294 295 294 294 295 295 296 297 298 299 300 301 301 300 300 300 299 298 298 299 299 300 300 300 301 301 301 301 301 301 300 301 301 301 300 300 300 300 300 299 299 298 298 297 296 296 295 295
311 311 310 309 309 308 307 307 306 306 306 304 302 302 303 304 304 305 305 305 304 304 305 304 304 304 303 302 301 300 299 300 301 301 300 298 297 297 297 296 296 297 295 294 295 296 297 300 301 300 300 299 299 298 298 298 298 299 299 300 300 301 302 301 301 302 301 300 301 301 301 300 300 300 300 300 299 299 298 297 297 296 296 295 295
312 311 310 310 309 309 308 307 307 307 306 304 302 302 303 303 304 304 305 305 305 305 305 304 304 304 303 302 302 301 299 298 299 300 300 301 300 299 298 298 298 299 297 295 294 294 296 298 300 299 299 298 298 298 297 298 298 298 298 299 300 301 301 301 301 302 301 301 301 301 300 300 300 300 300 300 299 299 298 297 297 296 295 295 294
311 311 310 310 310 309 308 308 307 306 305 303 301 301 302 303 303 304 305 305 305 304 304 304 304 304 303 303 303 302 301 298 296 296 298 301 301 301 300 300 300 301 299 297 296 295 296 297 298 298 298 298 298 297 298 298 298 298 298 298 299 300 301 301 301 301 301 300 301 300 300 299 300 299 300 300 299 299 298 297 297 296 295 295 294
311 311 310 310 310 309 308 308 306 305 303 300 298 298 300 302 303 304 305 305 304 304 304 304 304 303 304 304 302 302 302 297 293 293 296 300 302 301 301 302 302 302 301 299 298 297 297 297 298 298 298 298 298 298 298 298 298 297 297 298 299 300 300 300 301 301 301 301 300 300 299 300 299 299 299 299 299 298 298 297 296 296 295 294 294
310 310 310 310 310 309 308 307 305 304 302 297 296 297 299 301 302 303 305 305 304 304 304 304 304 302 303 303 302 302 301 296 291 292 296 299 301 301 301 302 302 301 301 299 298 298 298 298 299 299 299 299 298 298 298 297 297 296 297 298 299 299 300 300 301 301 301 301 300 299 299 299 299 299 299 299 298 298 297 297 296 296 295 295 294
310 310 310 310 309 308 308 306 305 305 302 298 296 297 298 301 302 303 305 305 304 304 303 303 303 303 303 303 302 302 301 295 291 293 296 299 301 301 302 303 302 301 300 299 299 300 299 300 300 300 300 300 299 299 298 298 297 297 297 299 300 299 299 300 301 301 301 301 300 299 299 300 299 299 299 298 298 298 297 296 296 295 295 295 294
310 310 309 309 308 308 307 306 305 306 304 299 297 297 297 300 302 302 304 305 305 304 303 303 303 302 301 302 302 303 301 295 291 293 296 300 302 302 302 302 301 301 299 298 299 300 300 301 302 301 301 300 299 300 299 298 298 298 299 300 300 299 299 300 301 300 301 301 300 299 299 299 299 299 299 298 298 298 297 296 296 295 295 294 294
309 309 308 307 307 306 306 305 305 307 305 300 297 297 297 299 300 301 304 306 305 304 303 303 303 301 298 297 300 302 299 293 291 293 295 298 302 302 301 301 301 300 297 297 299 300 301 302 302 301 301 300 300 300 299 299 299 299 300 300 300 300 300 300 300 300 300 300 300 299 299 299 299 298 299 298 298 298 297 297 296 295 294 294 294
Wind_Speed
8 8 8 8 8 8 8 8 8 8 7 6 6 5 4 3 3 2 3 3 2 2 2 2 1 1 1 2 3 3 4 4 5 6 8 7 6 7 7 7 7 7 7 7 8 9 10 10 9 10 11 11 12 12 12 12 11 11 11 11 11 12 13 13 14 15 16 16 16 16 17 18 18 18 17 16 16 16 17 17 16 16 16 16 15
7 8 8 8 8 8 7 7 7 6 6 6 5 5 4 3 3 2 2 2 1 1 2 3 1 1 1 2 3 3 3 4 5 5 8 7 7 8 9 10 10 9 9 7 5 6 6 6 6 6 8 9 11 12 12 12 12 12 12 11 11 12 13 13 13 14 15 15 16 16 16 17 18 18 19 18 17 17 18 18 18 17 17 17 16
7 7 7 8 8 8 8 8 8 7 7 6 5 4 3 3 2 1 0 1 1 1 2 3 2 2 2 3 3 4 3 4 5 6 8 7 8 10 11 13 13 13 12 9 6 4 4 4 5 5 5 5 7 10 12 12 12 13 12 12 11 12 13 13 13 14 15 16 15 15 15 16 17 18 20 20 19 19 18 17 18 17 17 17 17
7 7 7 8 9 9 9 9 9 8 7 5 5 4 3 3 2 2 1 0 1 2 2 3 3 3 3 3 3 4 4 5 6 6 7 7 8 9 10 11 13 15 14 11 8 7 7 7 8 9 7 6 6 7 9 10 11 13 12 12 12 10 12 13 13 14 15 16 17 15 14 14 15 16 18 19 20 21 20 19 19 19 18 17 17
7 7 8 9 9 9 8 8 8 6 5 4 4 4 4 3 3 2 1 0 1 2 3 2 3 3 4 4 4 5 6 6 7 7 7 7 7 7 7 7 11 15 15 12 10 10 10 10 10 11 10 10 9 8 7 7 10 12 11 12 14 11 11 13 14 14 14 15 17 17 15 15 16 16 17 18 19 20 22 22 22 21 20 18 18
7 7 8 9 9 9 6 4 4 3 5 6 4 4 4 3 2 2 1 1 1 2 3 3 3 3 4 4 6 6 7 7 7 8 8 9 8 8 8 6 8 12 12 11 12 13 13 13 13 13 13 12 12 12 9 7 9 11 10 10 12 12 11 14 15 14 13 13 15 17 16 16 17 17 18 20 20 21 21 22 22 22 22 20 19
6 5 7 9 6 3 3 1 2 3 3 5 4 4 4 3 2 2 1 1 1 1 2 3 3 3 4 5 7 7 7 8 8 8 8 8 9 9 9 8 7 9 9 10 13 15 16 15 14 15 16 15 13 13 12 11 10 11 12 12 12 12 13 14 15 14 14 13 14 17 17 17 18 19 19 20 22 22 21 19 21 22 22 22 21
5 4 5 7 6 4 2 1 3 4 4 5 4 4 4 3 3 4 3 2 3 2 3 3 3 4 5 6 7 7 7 8 7 8 8 8 8 8 9 9 9 8 8 10 12 14 16 16 15 16 17 17 14 13 14 13 13 13 14 15 14 14 13 12 14 15 16 16 15 16 17 17 19 19 19 19 20 21 20 18 17 19 23 24 22
4 3 4 6 7 3 2 1 2 4 2 5 4 5 4 4 4 4 4 4 4 4 3 3 4 6 7 6 7 7 7 7 7 7 8 8 8 8 8 9 9 9 9 10 10 11 13 14 14 15 17 17 16 15 15 14 14 15 16 17 17 17 15 14 14 15 17 17 16 17 18 17 18 19 18 17 18 19 20 20 18 18 20 23 23
3 3 4 4 4 1 2 2 2 3 1 4 5 6 5 5 4 4 5 5 5 4 3 3 4 6 8 8 7 8 7 7 7 7 7 8 8 8 8 8 9 10 10 10 11 11 12 11 11 12 15 18 18 18 17 17 17 16 17 19 18 19 18 17 17 17 18 18 19 20 20 19 19 19 18 17 17 18 20 21 21 20 19 19 22
1 2 2 0 2 2 2 1 3 2 1 4 6 6 6 5 5 5 5 5 5 5 4 2 4 8 9 9 8 7 7 7 8 8 8 8 8 8 8 8 8 9 9 9 10 11 11 11 10 10 12 15 16 17 16 17 19 17 17 20 20 20 20 20 20 19 20 20 20 21 21 21 20 20 20 20 19 18 18 20 22 22 21 20 20
1 1 1 4 4 4 3 1 1 1 4 7 7 7 6 5 4 5 4 3 4 5 5 2 4 9 10 10 9 8 8 9 9 8 8 9 9 8 8 8 7 8 8 8 10 10 10 10 11 10 11 12 12 14 14 14 19 18 16 20 22 21 21 21 20 20 21 21 21 21 22 21 21 21 21 22 22 20 19 19 20 21 21 22 21
2 2 3 5 6 6 4 2 2 4 7 8 7 6 5 4 3 3 3 3 4 5 5 3 3 8 9 11 9 9 9 9 9 8 8 9 9 9 9 8 8 7 7 7 9 10 10 10 11 11 11 12 11 12 12 12 17 18 15 19 24 22 21 21 21 21 21 22 22 22 22 22 22 22 22 22 22 22 22 20 21 21 22 22 21
4 4 5 5 5 5 4 3 4 5 7 7 6 6 4 3 2 0 2 3 5 5 5 4 3 8 9 10 8 8 10 10 9 9 8 9 9 9 9 9 9 8 7 6 7 8 9 9 10 11 12 12 12 12 11 11 15 17 14 17 24 24 22 21 21 22 22 22 23 22 23 23 23 24 23 23 22 22 23 23 22 23 25 24 22
5 5 6 5 6 6 5 5 6 7 6 6 6 5 4 3 2 2 1 4 4 6 7 6 5 2 8 8 6 6 7 7 8 8 9 9 8 8 7 7 8 8 7 7 6 7 8 9 10 11 13 12 12 12 11 11 14 15 13 16 24 25 23 22 22 22 23 23 23 23 23 23 24 24 24 24 23 23 24 24 24 24 25 25 23
5 6 7 6 7 7 7 7 7 7 6 5 5 4 4 3 3 3 2 2 5 6 8 8 9 5 2 4 6 7 4 5 7 7 8 9 9 7 7 6 7 7 7 7 7 6 7 9 10 10 12 12 12 12 11 11 13 14 12 16 25 26 22 22 22 22 23 24 24 24 24 24 24 24 24 24 24 23 23 24 24 24 24 25 24
7 7 7 7 7 8 7 7 6 6 5 4 3 3 4 4 4 3 2 2 5 4 7 9 10 9 5 3 3 4 3 9 9 5 6 7 8 7 6 6 6 6 6 6 7 7 7 9 9 9 11 11 11 11 12 11 12 14 12 17 27 26 21 21 22 22 23 24 25 25 25 24 24 24 24 24 24 23 23 24 24 24 24 24 24
8 8 7 7 8 9 8 7 6 5 4 3 3 4 5 6 5 5 4 4 3 3 5 7 10 12 10 9 5 4 4 8 7 4 6 6 7 7 6 5 4 4 5 6 7 8 8 8 9 9 9 10 11 11 12 12 12 13 12 18 28 25 20 22 22 23 24 25 26 26 26 25 25 25 25 24 24 23 24 24 24 24 24 24 24
10 9 8 7 8 9 8 6 4 4 4 4 4 5 7 7 7 6 6 5 4 4 4 6 8 10 10 10 9 8 7 3 1 2 4 5 5 6 5 5 5 4 5 6 6 7 8 8 9 9 8 10 11 11 12 12 12 13 12 20 30 26 22 23 24 25 26 26 27 27 27 26 25 25 25 25 24 24 24 24 24 24 24 24 24
11 10 8 7 7 7 7 6 4 3 4 5 7 8 8 8 8 8 8 8 7 6 6 6 7 8 9 9 10 9 10 9 6 4 2 2 4 4 4 4 3 3 4 5 5 6 6 7 8 9 9 9 10 12 12 12 13 13 12 23 33 30 25 25 24 26 27 28 28 28 28 27 26 25 25 26 25 25 25 25 24 24 24 24 24
10 7 6 5 5 5 7 6 5 5 6 8 9 10 10 9 10 9 9 10 10 9 8 8 8 8 8 8 9 9 9 9 8 7 5 2 2 2 3 3 2 1 3 5 5 5 5 6 7 8 10 10 11 12 12 13 14 12 15 25 32 31 28 25 24 25 27 27 27 28 29 28 27 26 26 26 26 26 26 25 25 24 24 24 24
9 6 4 4 5 6 8 7 7 7 9 10 10 10 11 11 11 11 11 11 11 12 11 10 10 10 10 9 8 7 7 8 8 7 6 4 2 1 0 1 3 3 1 4 4 4 5 6 7 8 10 11 12 13 13 14 14 13 19 26 30 31 28 24 24 24 25 27 28 29 28 28 27 26 26 26 27 27 26 25 25 25 25 24 24
8 5 5 6 7 8 8 7 8 9 9 10 10 9 10 11 12 13 13 13 13 13 13 13 12 12 11 10 9 9 8 7 7 7 6 4 3 1 1 3 1 3 1 3 2 4 7 7 8 9 10 12 13 13 14 14 14 16 21 26 30 30 27 24 24 23 24 29 31 29 27 27 26 26 26 26 27 28 27 26 25 25 25 25 24
8 6 6 7 9 8 8 8 9 9 10 10 9 9 9 10 11 12 13 13 13 13 14 13 12 11 11 11 10 10 9 8 7 7 7 6 5 3 3 4 3 2 2 1 1 6 8 8 9 10 12 14 14 15 15 15 16 18 23 29 31 28 26 24 22 22 27 31 31 29 27 27 27 26 26 26 28 28 27 27 27 26 26 25 24
10 8 8 8 8 8 8 8 9 10 10 10 9 10 11 12 13 13 14 13 13 14 14 12 11 11 10 10 10 9 9 8 8 8 8 8 7 6 4 4 4 3 2 3 4 7 9 10 9 11 14 14 15 16 16 17 18 19 26 32 29 26 25 22 22 27 30 29 28 29 29 30 29 27 26 27 28 28 27 28 28 27 26 25 24
10 9 9 8 9 9 8 9 11 11 11 10 10 11 12 13 14 14 14 13 13 14 13 12 12 12 10 9 9 9 9 9 10 10 10 10 9 8 7 3 3 4 3 5 7 8 11 11 9 12 15 15 16 17 17 19 19 21 29 31 26 25 23 22 27 31 28 26 28 30 30 30 29 27 28 29 28 28 30 30 29 28 26 25 25
11 10 9 10 10 10 10 11 12 11 10 11 11 12 13 13 13 13 14 14 14 13 13 13 13 12 10 9 9 9 10 10 10 11 10 10 9 10 10 5 2 4 4 5 7 9 12 12 10 13 15 16 17 18 19 20 19 24 30 28 25 25 23 27 31 28 26 29 31 31 29 28 28 29 30 29 28 30 31 29 28 28 27 26 26
12 11 10 11 11 11 12 13 12 11 11 11 12 12 13 13 13 14 14 13 13 13 13 13 11 10 10 9 9 10 10 10 10 9 9 9 9 10 11 9 5 4 3 4 6 8 12 13 11 13 16 17 18 18 20 20 20 26 29 26 26 24 25 32 30 26 30 32 29 28 28 29 30 31 29 27 29 31 30 28 27 27 27 27 27
14 12 13 13 13 13 13 13 12 11 11 11 12 12 13 13 13 14 13 12 12 12 11 10 9 9 9 9 9 9 9 8 8 8 8 8 9 9 10 10 8 5 4 4 4 7 12 13 13 14 16 18 19 19 20 20 22 27 28 26 26 24 28 32 27 27 32 31 28 29 32 34 33 31 28 27 30 30 28 27 27 27 28 28 28
14 14 15 15 14 13 13 13 12 11 12 12 12 13 13 13 13 13 12 11 12 11 10 9 9 9 9 9 9 8 7 7 8 8 8 7 7 7 8 9 9 7 6 5 4 8 12 13 14 15 17 19 20 20 20 20 23 26 27 26 25 25 30 30 26 30 32 28 30 34 36 37 34 32 31 30 29 29 28 28 28 27 28 28 28
14 15 15 15 14 13 13 12 12 12 12 12 12 13 13 13 13 12 11 11 11 10 9 9 8 8 8 7 7 6 6 6 7 7 7 7 6 6 6 7 9 8 8 6 4 7 11 13 14 15 17 19 20 19 20 21 23 26 27 26 25 26 28 27 27 30 29 28 34 37 37 35 32 32 33 33 31 29 29 29 28 28 28 28 29
13 14 14 14 14 13 13 12 12 12 12 12 12 13 13 12 12 12 11 11 11 10 9 8 8 8 8 7 6 5 5 5 5 5 5 5 6 6 6 7 8 8 9 7 6 7 10 12 14 15 16 18 19 19 21 22 24 26 26 25 26 26 25 24 27 29 29 31 36 37 35 34 35 36 35 34 33 31 30 30 29 28 28 29 28
13 14 14 14 14 14 13 13 12 13 13 13 13 12 12 12 12 12 11 11 10 10 9 9 8 8 8 8 7 6 5 5 4 4 4 4 5 6 6 7 8 8 9 9 7 9 11 12 14 14 15 17 18 18 21 23 25 26 26 25 25 26 24 23 26 28 30 34 36 35 35 37 38 38 36 36 34 32 31 30 29 29 29 28 27
13 14 15 14 14 14 13 13 13 13 13 13 12 12 12 12 12 11 11 10 10 9 9 8 8 7 8 8 7 7 6 5 5 5 5 5 6 6 6 7 8 8 8 9 9 10 12 13 14 14 15 16 17 19 20 22 26 28 27 25 26 26 23 23 25 27 29 33 34 34 37 39 39 38 38 37 34 32 32 30 29 28 27 26 25
14 14 15 15 14 14 13 13 13 13 13 13 12 12 13 12 12 11 11 10 10 9 9 9 8 8 7 7 7 6 5 5 5 5 5 6 6 7 6 6 7 8 7 8 9 10 12 14 14 15 15 16 17 18 20 21 24 27 27 26 26 26 24 23 24 26 28 32 33 34 38 39 40 40 38 36 35 35 32 28 27 26 25 25 24
15 15 15 15 14 14 14 13 13 13 13 13 13 13 12 12 12 11 11 10 9 9 9 8 8 7 7 7 7 6 5 4 5 5 5 5 6 7 7 6 6 7 7 7 8 10 12 13 14 14 15 16 17 18 20 21 23 25 26 26 26 25 24 24 24 25 28 30 32 34 38 39 40 40 39 38 38 34 29 26 27 28 27 25 23
15 16 16 15 14 14 14 14 14 13 13 13 13 13 12 12 12 11 11 10 9 9 8 8 8 7 7 7 7 6 5 5 5 5 5 5 6 7 7 7 7 8 8 8 9 9 11 12 13 14 15 15 16 18 20 22 23 24 24 26 26 24 24 24 25 25 26 28 31 34 37 38 39 40 39 39 37 32 29 30 30 29 25 22 20
16 16 16 15 14 14 14 14 14 14 14 14 13 13 13 12 12 11 11 10 9 9 8 8 8 7 7 7 7 7 6 5 5 5 5 5 5 7 7 8 8 9 9 9 9 10 10 11 12 13 15 15 16 18 19 22 24 24 24 26 25 24 24 25 26 25 24 26 30 33 35 37 39 39 40 39 35 32 32 32 30 26 21 20 24
16 16 16 15 15 15 15 14 14 14 14 14 13 13 13 13 12 11 11 10 10 9 8 8 7 7 7 7 7 7 6 6 5 6 6 5 5 6 7 8 8 9 9 9 9 10 10 11 11 13 14 15 16 18 20 21 23 23 24 25 25 25 25 25 26 26 25 26 29 32 35 37 38 39 40 37 34 34 34 31 27 24 23 27 31
16 17 16 16 15 15 15 15 15 14 14 14 13 13 13 13 12 12 11 11 10 9 9 8 7 7 7 7 8 7 7 6 6 6 7 6 5 6 7 8 9 9 9 9 10 10 11 10 11 13 14 15 17 18 20 21 22 23 24 24 25 25 26 26 26 25 26 28 30 31 35 38 38 38 38 36 35 35 35 31 28 26 28 32 32
16 16 16 17 16 15 15 15 15 15 14 13 13 14 14 13 13 12 11 11 10 10 9 8 8 7 7 8 8 8 8 8 7 7 8 7 7 6 7 8 9 9 9 9 10 10 11 11 11 13 14 15 17 19 20 21 23 24 25 25 23 24 26 26 25 24 25 29 31 31 33 37 39 39 39 37 36 36 34 31 30 31 33 33 32
16 16 17 17 16 16 16 16 16 15 13 13 15 15 15 14 13 12 12 11 10 10 10 9 8 8 8 8 8 8 7 7 8 8 8 8 8 7 8 9 10 9 9 9 10 10 11 11 11 13 14 15 17 19 20 22 23 24 25 25 23 24 25 24 24 23 25 29 30 30 32 35 38 39 39 38 37 36 34 32 32 34 34 33 33
16 17 17 17 16 16 16 16 16 15 13 14 17 18 16 15 14 13 12 11 10 10 9 9 9 9 8 8 7 4 3 2 3 5 7 7 8 8 9 9 10 11 10 9 9 10 11 10 11 13 14 15 17 18 19 21 23 24 25 24 24 24 25 23 22 23 27 30 30 29 31 33 36 38 38 37 37 36 34 33 34 35 35 35 35
17 17 17 17 16 16 16 16 15 14 12 15 19 19 18 17 16 14 12 11 10 10 9 9 9 9 8 8 6 3 2 2 1 2 4 5 7 8 8 7 8 10 10 10 10 10 10 10 11 12 13 15 17 17 18 21 23 24 25 24 24 24 24 24 23 24 28 30 28 27 30 32 35 37 38 37 38 37 36 34 35 35 36 37 36
17 17 17 17 16 16 16 15 14 13 11 15 21 21 19 18 17 14 12 11 10 9 9 9 9 9 9 8 7 5 4 3 2 1 2 4 5 7 7 6 6 7 9 11 11 11 10 9 10 12 13 14 15 16 18 20 22 24 24 24 25 24 24 25 25 26 29 28 25 25 28 31 34 36 36 37 37 38 37 36 35 36 38 38 36
17 17 18 17 16 16 15 15 15 14 12 15 21 22 20 20 17 12 10 10 10 9 9 8 8 8 8 7 7 6 5 3 2 2 1 1 3 5 4 5 5 5 6 8 10 11 10 8 9 11 12 12 14 16 18 19 21 23 25 25 26 25 25 26 24 25 26 25 24 25 26 29 34 35 35 36 37 37 37 36 37 38 40 40 37
17 17 18 17 16 16 15 15 16 15 14 17 22 22 22 21 16 10 8 9 9 9 9 8 8 8 7 6 6 6 5 3 2 4 4 2 1 3 3 2 3 4 3 5 9 10 9 8 8 10 12 13 15 17 19 18 19 22 25 25 25 24 25 25 22 22 24 23 24 26 24 26 32 34 34 36 35 34 35 36 37 39 40 40 38
17 17 17 17 17 16 15 15 15 14 15 20 22 22 22 22 16 9 8 9 10 9 9 8 8 8 8 6 6 6 5 3 3 4 6 5 1 2 2 2 3 2 2 7 11 11 12 11 10 13 15 16 18 19 19 18 19 22 23 22 23 23 24 23 21 22 24 21 24 29 26 24 29 33 33 35 34 32 35 39 39 39 41 41 38
17 18 18 17 16 16 16 16 15 13 16 21 22 22 24 23 17 10 8 10 10 9 10 9 8 8 8 7 7 6 5 4 3 5 7 5 2 2 2 2 3 3 4 8 11 11 12 13 14 16 17 17 18 19 18 18 20 21 20 20 22 24 23 21 19 22 24 21 23 30 28 24 27 29 29 33 33 28 31 39 41 40 41 42 39
18 18 17 16 16 17 16 16 15 14 16 21 23 23 25 25 19 11 9 10 10 10 10 10 8 8 9 11 9 7 6 7 5 6 7 5 2 2 2 3 3 4 6 10 11 10 12 13 14 16 16 16 17 17 17 19 20 18 18 19 22 23 22 20 20 22 22 19 24 31 29 26 27 26 26 32 33 26 27 35 41 42 42 42 41
18 17 17 17 17 16 16 16 16 15 16 21 24 24 25 25 21 14 10 9 11 10 10 11 9 8 9 13 12 9 8 9 7 6 7 5 3 1 3 3 3 5 8 10 11 11 13 13 14 15 14 14 15 15 16 18 18 18 18 20 21 21 21 21 22 21 17 16 24 32 29 26 28 27 27 26 22 22 29 35 38 40 40 43 46
Wind_Direction
180 184 186 185 186 189 188 187 189 181 182 187 181 189 196 196 205 214 233 253 261 271 298 288 286 316 348 5 356 352 354 354 3 46 72 82 74 45 28 21 19 19 26 40 41 36 35 32 34 33 29 26 19 17 15 12 7 2 357 349 342 337 333 333 330 327 325 320 315 306 298 293 292 293 289 287 287 289 300 304 288 273 276 279 278
188 191 189 189 191 191 191 189 188 182 181 183 181 187 194 199 197 205 224 235 242 276 299 289 298 325 18 18 12 7 5 16 16 46 75 86 83 59 40 35 30 26 24 28 40 45 44 39 38 42 40 36 30 25 22 19 18 20 17 11 7 4 356 349 345 342 338 333 323 314 305 299 296 294 292 288 285 287 293 300 296 281 273 275 277
200 201 195 194 194 194 192 193 194 190 187 184 180 183 189 189 178 182 204 284 280 339 317 318 337 335 24 34 20 24 28 37 36 49 67 79 90 76 50 39 34 28 22 16 22 25 9 -0 356 5 16 23 30 29 23 16 18 24 22 19 17 15 11 1 354 354 353 350 340 326 315 307 302 298 294 290 286 284 283 288 294 290 279 273 272
211 210 205 205 202 200 197 197 199 193 188 176 168 176 178 162 139 148 148 0 329 347 328 333 342 342 19 37 35 42 50 53 51 51 56 65 80 79 62 47 34 25 18 11 11 16 12 6 -0 360 359 353 358 16 20 11 14 16 12 13 7 2 6 3 359 359 360 0 355 345 333 325 316 311 306 297 289 283 279 280 285 290 288 279 270
215 216 218 215 209 205 198 202 208 194 177 162 153 164 163 147 140 158 158 0 344 345 333 341 356 10 27 37 55 60 60 62 56 49 48 49 52 58 64 58 36 23 16 9 5 10 14 14 12 7 3 360 352 357 7 359 3 5 2 5 3 357 357 356 358 357 358 1 0 354 346 341 333 327 324 314 303 291 282 279 279 283 286 284 276
219 223 228 226 226 217 205 214 221 200 172 163 156 159 150 133 147 148 97 346 347 354 338 359 11 22 38 53 69 71 67 63 58 54 49 46 42 36 40 48 42 27 17 11 4 -0 1 3 5 4 0 360 359 358 2 359 353 351 349 351 350 349 346 347 350 349 350 351 355 356 347 342 339 335 332 326 318 308 293 280 274 276 279 281 281
229 240 240 244 260 211 196 211 182 226 203 162 151 143 129 102 82 49 50 330 337 17 2 30 34 39 62 71 73 73 69 61 53 51 45 43 44 36 34 36 34 25 17 17 12 0 356 357 358 -0 357 353 356 355 358 4 357 347 346 345 339 333 330 335 336 333 337 334 339 352 345 336 340 338 334 328 323 320 313 295 276 271 274 276 278
246 257 254 273 338 59 160 160 152 230 212 144 129 120 109 88 66 37 33 349 347 23 19 42 57 68 76 74 74 71 67 64 56 48 42 43 47 43 40 36 29 24 19 17 15 3 359 3 0 358 354 352 356 354 353 359 1 358 353 350 346 339 332 331 331 329 332 327 325 341 339 329 332 334 331 330 327 327 329 324 301 278 271 272 275
277 293 279 294 346 38 186 133 150 243 203 118 99 97 88 72 63 39 32 11 1 16 19 50 71 82 80 75 76 70 65 61 55 51 48 45 42 43 41 36 32 31 27 19 16 9 5 10 3 353 348 351 -0 2 359 359 5 8 4 360 356 351 347 340 339 336 330 324 321 328 329 323 324 328 328 329 330 328 329 331 324 303 280 270 270
320 336 307 316 1 48 167 153 202 251 237 99 88 83 69 60 52 37 36 26 20 17 14 45 84 95 84 77 75 72 71 61 58 59 53 46 39 41 41 38 37 32 29 22 18 16 11 11 5 352 345 350 1 7 6 2 4 11 9 6 3 358 355 351 350 346 337 332 328 328 327 324 323 324 326 328 330 329 327 327 325 322 308 285 271
330 349 308 53 96 134 130 253 243 236 79 79 78 70 59 55 41 29 31 35 35 18 -0 29 105 105 89 81 76 75 75 60 60 62 54 48 40 41 40 37 38 33 31 25 20 18 13 10 7 360 351 354 2 6 10 2 358 7 9 7 7 2 358 357 355 352 349 345 339 335 332 330 327 325 325 325 326 326 326 325 323 324 322 310 292
208 316 106 119 121 114 94 15 327 59 66 65 61 57 55 50 40 29 19 34 43 19 350 342 115 113 103 98 88 80 80 69 62 59 54 49 43 43 41 36 35 30 32 29 23 18 13 10 6 3 359 -0 2 3 11 1 351 0 7 3 4 3 359 357 355 354 352 349 346 341 337 335 333 330 326 324 322 322 321 316 316 323 325 320 314
152 120 107 104 95 88 86 59 43 56 58 56 51 50 49 39 41 40 21 17 28 23 354 322 163 143 123 113 109 98 92 82 68 62 59 51 47 49 43 38 32 25 27 26 24 19 12 9 5 4 1 0 2 359 6 0 349 358 4 356 357 359 358 355 354 353 351 349 348 344 341 339 336 332 329 327 324 324 322 313 309 316 322 321 322
123 119 113 104 96 91 91 67 47 53 53 49 45 41 38 29 12 78 88 60 34 31 12 331 218 180 151 132 128 114 98 88 75 66 65 59 54 52 47 42 33 25 22 18 20 17 11 7 4 5 3 1 2 358 359 359 352 358 0 350 349 353 355 353 352 352 351 350 348 345 344 342 339 336 334 332 330 330 327 321 315 313 315 317 322
128 129 120 106 100 92 80 60 43 44 44 39 36 29 23 17 346 312 112 103 70 37 26 8 339 240 173 159 155 138 111 100 87 69 68 68 62 55 49 41 33 29 24 17 14 11 10 9 4 5 5 2 -0 357 354 354 353 356 356 344 343 348 349 349 350 350 349 350 347 346 345 343 341 338 336 335 335 335 331 327 325 319 315 315 317
135 130 118 99 93 84 68 54 41 36 34 31 27 28 24 17 18 346 300 112 93 44 31 33 18 6 213 212 192 176 151 126 111 89 88 80 71 65 53 43 34 29 26 22 13 9 8 7 4 2 3 1 356 354 349 346 349 350 349 342 341 344 343 343 347 347 345 347 346 345 344 341 340 338 337 336 334 334 332 330 331 327 322 319 317
128 121 110 95 86 79 66 51 40 34 34 33 29 39 46 41 49 48 353 45 98 74 42 45 40 39 25 341 213 197 131 140 139 112 106 90 81 77 59 48 38 28 28 26 18 13 4 2 2 355 356 357 351 349 344 340 342 344 346 341 339 340 340 343 346 344 342 342 342 342 341 339 337 336 335 334 332 330 329 328 329 329 326 323 322
126 117 107 99 83 73 65 51 40 38 39 50 55 57 58 55 53 62 58 49 91 108 69 61 52 50 49 46 53 23 50 149 161 129 122 114 98 88 70 57 40 28 26 25 23 15 3 357 357 350 347 349 345 342 340 338 337 340 341 339 341 342 343 347 347 343 341 340 340 339 337 336 334 334 333 332 331 328 327 325 324 326 326 325 324
133 121 108 104 90 78 69 58 52 53 62 74 69 65 62 59 57 60 63 51 62 92 80 78 65 52 54 56 59 49 40 65 107 107 145 148 115 96 88 67 36 23 17 13 13 6 358 354 352 348 341 341 342 338 337 336 333 335 333 336 345 351 348 349 349 345 343 341 338 336 334 334 331 330 330 331 330 327 326 324 323 323 322 323 323
137 127 116 106 95 87 82 77 78 78 86 84 72 71 68 64 63 64 66 59 60 74 72 71 72 60 56 54 54 55 50 41 26 1 312 174 140 136 129 98 39 16 4 347 344 343 339 339 341 344 340 338 340 337 335 333 330 331 327 331 342 348 345 344 343 343 343 341 337 334 332 332 330 328 328 329 329 327 325 323 322 322 321 320 320
139 128 109 91 84 91 93 91 96 98 93 88 79 76 74 71 70 68 72 72 65 70 72 67 66 57 51 49 46 48 50 43 30 15 1 10 112 136 152 153 163 75 358 314 301 315 327 331 335 340 341 339 339 337 334 332 330 328 324 327 336 340 337 336 336 337 338 336 335 333 331 330 329 327 326 326 327 326 325 323 321 320 320 319 317
137 116 95 86 90 95 97 97 99 100 93 88 84 80 79 79 80 77 77 79 74 71 73 69 64 57 50 49 47 45 48 42 30 26 19 12 35 63 110 225 188 147 13 308 296 323 341 344 342 343 344 343 340 335 332 331 330 325 320 326 333 334 331 331 332 333 332 332 334 333 331 330 329 327 326 325 326 326 324 323 321 320 319 318 317
129 115 110 101 97 98 104 105 100 99 94 89 86 84 86 87 86 84 80 78 76 73 72 70 66 62 57 56 55 47 46 44 29 19 17 8 356 26 25 321 267 136 137 283 294 350 355 352 350 349 350 348 342 337 334 333 333 325 322 330 333 332 331 332 331 330 329 332 334 333 331 331 330 329 328 327 326 325 324 323 321 320 319 317 316
124 115 112 105 106 111 115 112 102 99 95 90 90 93 96 95 89 85 81 77 77 75 71 69 68 66 62 59 59 55 49 43 31 22 20 8 347 355 34 356 339 90 115 235 350 10 5 358 354 357 356 351 346 343 341 338 336 328 327 333 333 333 335 334 334 334 333 333 333 332 331 329 328 327 327 327 327 325 323 322 321 320 319 317 316
125 118 114 116 122 127 125 115 106 102 97 94 97 101 100 97 91 86 84 81 80 79 75 72 71 70 67 62 60 58 53 43 35 33 27 21 12 1 10 8 355 13 93 84 32 15 10 3 0 1 358 353 348 346 344 340 337 331 331 333 334 335 335 336 340 338 335 334 332 332 332 330 328 325 324 325 327 325 322 320 319 318 317 316 314
132 130 129 135 138 137 131 116 109 104 101 102 102 103 101 97 93 90 87 85 83 82 80 76 73 69 69 69 64 60 54 45 41 40 35 31 28 7 348 344 10 6 26 51 32 18 10 3 4 3 358 354 349 345 342 339 335 332 334 334 334 335 334 339 342 337 332 332 332 332 332 331 329 326 326 326 325 324 321 317 316 315 314 314 313
139 139 139 144 142 139 130 116 111 109 107 110 107 103 101 98 97 94 91 89 87 86 82 78 75 72 72 72 68 61 54 46 44 43 39 34 30 18 4 354 19 18 17 30 27 20 10 0 1 5 358 352 349 343 339 338 335 333 336 335 335 335 334 334 336 338 337 334 334 334 334 333 331 328 328 327 323 321 319 316 314 313 312 312 311
142 143 144 147 146 138 127 117 116 115 113 114 110 106 104 102 101 98 95 93 90 88 83 79 78 76 74 73 70 62 53 49 47 42 40 38 32 28 23 14 7 5 9 22 22 14 8 1 358 -0 358 351 347 342 337 338 336 335 336 337 336 336 336 333 334 341 343 339 339 340 338 336 334 332 329 323 322 322 320 317 314 313 312 310 310
140 144 147 147 145 136 125 121 121 119 118 117 113 111 109 106 104 101 100 99 93 88 85 85 84 81 76 73 70 65 56 51 49 42 39 39 35 31 31 23 12 3 -0 8 19 6 -0 1 356 351 351 350 345 340 338 338 337 336 337 337 337 337 336 336 340 345 343 340 341 341 340 339 337 334 329 324 324 324 321 319 316 313 312 310 309
141 145 147 144 141 134 127 126 126 123 121 119 116 115 113 110 107 105 105 102 96 93 92 93 91 87 83 78 74 70 62 55 52 48 40 36 36 33 32 28 20 16 2 348 11 8 353 353 353 345 344 346 343 338 338 337 336 337 337 336 337 337 336 337 343 345 342 340 341 343 341 339 337 334 332 330 328 324 321 320 317 314 312 310 310
143 144 144 142 139 135 133 130 128 125 123 122 121 119 115 114 112 110 109 105 103 103 101 100 98 95 92 87 83 77 68 61 53 49 44 37 35 33 32 30 24 18 3 343 348 3 351 344 341 339 340 342 341 339 338 338 338 339 338 336 336 338 338 339 342 344 344 342 343 344 341 339 339 337 335 333 329 323 320 319 318 317 316 313 314
147 147 146 144 141 139 137 134 132 130 128 128 126 122 119 118 117 116 114 113 112 110 110 108 106 105 100 94 89 78 68 65 54 48 50 43 38 34 29 28 24 13 1 349 340 343 344 338 333 335 339 339 339 341 340 338 339 339 338 338 338 338 340 339 339 343 346 343 341 341 341 342 341 338 335 333 331 326 323 322 322 322 321 319 317
151 151 147 144 143 141 139 138 136 135 134 133 129 126 124 123 122 121 120 121 119 118 119 116 112 110 105 98 91 78 67 60 53 53 53 45 45 41 31 26 22 11 -0 353 343 333 334 335 333 334 338 339 339 342 341 339 339 339 338 339 340 340 340 338 336 340 342 341 340 340 341 341 339 336 335 333 332 330 328 327 326 324 323 321 318
153 153 148 145 145 143 142 141 139 139 138 134 131 130 129 127 125 125 126 126 125 125 126 122 116 113 107 100 93 82 71 59 51 51 45 40 43 39 31 23 14 6 359 349 340 331 328 332 334 335 339 341 339 341 344 341 338 337 338 340 340 338 338 339 337 336 337 339 341 341 340 339 338 337 336 335 334 333 332 331 329 327 326 323 320
154 153 149 147 147 145 144 142 141 142 138 134 134 134 133 132 130 128 129 129 131 132 130 127 124 118 110 104 97 86 78 66 56 51 41 38 40 33 22 16 6 359 352 341 334 328 324 327 332 336 339 340 339 341 342 341 338 336 336 339 339 337 337 339 338 336 337 339 341 340 337 337 337 337 337 338 337 333 333 335 334 332 330 328 326
154 152 150 149 148 146 145 144 144 143 140 137 138 137 136 136 134 132 133 134 136 136 133 130 126 121 115 108 101 92 82 71 58 51 44 37 38 32 15 2 2 356 344 334 330 325 321 322 329 336 337 338 339 340 340 340 338 337 336 336 337 338 337 338 337 335 337 340 339 338 337 337 337 337 339 339 338 336 337 340 339 336 334 333 333
154 153 152 151 150 148 147 147 146 145 143 142 141 141 140 138 137 137 137 139 139 135 132 129 125 121 117 108 101 94 83 71 56 45 40 32 31 30 13 358 358 351 338 334 332 327 323 322 326 334 337 339 340 340 342 342 339 337 337 335 336 338 337 336 335 335 338 340 339 338 338 338 337 338 340 340 340 344 347 345 341 338 336 336 338
156 155 155 154 153 152 151 150 149 147 146 145 145 144 143 141 141 140 139 140 138 136 133 129 125 123 117 108 99 90 80 69 54 38 32 29 26 23 10 358 356 348 339 336 334 331 330 328 330 335 339 341 342 341 343 343 339 338 337 335 336 338 338 336 335 336 338 339 338 339 339 339 339 340 340 341 343 346 346 343 341 341 341 340 338
158 158 157 156 156 155 153 152 151 150 149 149 149 147 146 145 144 143 143 142 140 139 137 132 128 127 119 110 98 88 79 68 55 39 30 24 19 18 10 360 354 347 342 340 339 339 336 334 338 341 341 343 344 342 342 341 339 339 339 337 336 338 339 337 336 336 335 335 336 339 342 343 343 341 340 342 344 344 342 342 344 344 341 338 337
162 162 159 158 157 155 154 153 151 152 153 154 154 152 150 149 148 148 147 146 144 143 139 136 134 130 122 109 97 91 89 86 75 59 50 44 28 16 9 2 357 352 348 345 344 346 343 340 344 345 342 344 346 342 340 342 341 339 340 337 334 335 337 336 336 335 334 335 338 341 345 346 344 342 342 344 344 343 343 344 345 343 341 339 338
165 164 161 160 159 156 155 154 153 154 155 157 159 159 156 153 152 152 150 149 149 147 145 144 142 137 127 114 108 106 102 89 73 61 56 54 47 33 19 11 5 358 353 351 351 350 346 344 348 348 344 345 346 343 342 344 341 335 335 335 333 334 335 333 334 336 336 337 339 342 347 348 345 343 343 344 343 344 343 343 344 343 342 341 338
167 165 163 162 162 160 159 157 156 157 159 163 166 163 159 156 154 153 152 153 154 153 154 152 149 144 134 124 118 108 90 71 56 48 44 44 49 48 40 34 27 14 -0 353 353 352 348 347 350 348 345 345 344 342 341 340 337 333 333 335 334 333 334 334 332 336 342 343 341 341 345 348 347 344 343 344 344 344 343 342 343 342 341 340 338
169 166 165 165 164 163 163 160 159 159 162 171 171 165 160 157 154 152 154 156 157 159 160 159 157 153 144 138 131 104 65 38 21 20 22 30 39 39 34 33 30 23 13 0 352 350 347 346 348 347 345 343 341 341 341 338 335 333 333 334 334 333 336 336 332 335 344 345 342 341 342 346 349 345 342 344 345 345 344 342 341 341 341 341 339
170 168 168 168 166 166 164 162 162 162 166 178 177 169 163 159 154 152 156 158 161 165 167 166 165 159 152 150 150 144 145 162 215 316 338 354 8 15 13 10 12 12 11 7 358 352 345 338 340 344 343 339 337 338 340 336 332 332 332 333 333 332 333 334 330 332 339 343 346 345 341 343 348 346 344 344 344 345 344 342 341 341 341 341 339
171 170 171 170 168 167 166 163 163 161 168 181 181 175 168 161 156 153 154 160 165 170 173 171 169 163 158 159 163 164 154 133 129 255 298 312 331 351 351 340 343 351 -0 5 359 352 345 331 330 337 339 337 335 333 334 332 330 331 332 331 330 330 330 330 327 329 336 345 355 350 341 342 347 347 346 344 344 347 347 344 343 343 342 341 340
173 172 173 172 169 169 167 164 164 166 173 183 184 181 172 164 161 155 153 162 166 167 172 172 169 167 164 168 171 166 153 132 137 161 175 291 313 335 331 314 311 315 339 358 352 346 341 328 324 330 332 331 328 324 325 326 327 330 329 326 326 328 329 327 327 332 338 347 358 353 341 343 348 348 347 346 345 347 348 346 345 345 344 343 342
174 173 175 173 171 170 168 164 165 173 183 184 184 183 175 169 167 157 151 163 163 163 172 172 168 168 168 171 171 158 148 149 162 158 149 153 282 326 328 319 309 291 301 337 339 341 341 329 321 325 325 325 324 324 325 323 323 327 325 321 323 327 329 328 331 340 343 350 2 357 341 341 349 349 347 347 344 344 347 346 345 345 346 345 344
174 175 175 173 171 169 168 167 166 173 183 183 181 181 176 172 170 162 161 170 166 166 175 175 169 170 170 173 174 161 152 164 174 152 136 123 89 335 327 334 332 321 327 331 333 341 344 340 339 335 332 333 333 333 334 330 328 328 323 321 328 332 332 334 337 343 344 351 4 358 341 338 352 352 347 345 342 343 349 350 347 348 349 349 346
173 174 172 171 172 171 170 170 169 172 182 186 184 181 178 174 172 175 180 177 172 173 178 180 176 173 177 182 177 166 166 179 180 152 138 115 59 352 329 337 336 345 352 338 333 335 336 338 343 339 335 337 339 339 341 338 337 336 328 326 334 336 335 337 339 341 341 348 1 356 342 339 350 353 348 343 340 340 346 350 350 351 353 352 349
170 170 169 170 175 177 176 175 176 177 183 190 190 184 180 177 177 190 198 182 178 181 180 184 183 179 191 193 171 152 176 190 176 151 145 125 67 7 331 341 342 350 353 344 336 334 332 333 337 335 334 338 341 343 345 344 345 347 339 331 334 336 336 336 336 337 338 345 357 355 348 343 346 349 349 345 342 340 343 347 351 353 355 355 352
171 169 171 175 179 181 181 182 185 184 184 192 193 186 183 183 186 200 212 191 183 187 185 188 188 178 190 195 181 169 183 187 168 149 147 138 111 36 344 349 349 348 347 341 334 330 328 328 332 334 336 340 341 343 345 346 348 349 342 336 336 337 336 334 335 337 335 343 352 352 349 345 344 347 351 349 341 340 344 346 348 351 354 357 357